Friday Harbor, WA

1:17 AM PDT on August 28, 2016 (GMT -0700)
Friday Harbor

Weather History for KFHR - August, 2013

Change the Weather History Date:

Friday, August 9, 2013

  Actual Average Record
Temperature  
Mean Temperature 60 °F -  
Max Temperature 75 °F 71 °F 88 °F (2004)
Min Temperature 48 °F 48 °F 46 °F (1998)
Degree Days  
Heating Degree Days 4    
Growing Degree Days 10 (Base 50)    
Moisture  
Dew Point 51 °F    
Average Humidity 85    
Maximum Humidity 100    
Minimum Humidity 53    
Precipitation  
Precipitation 0.00 in - - ()
Sea Level Pressure  
Sea Level Pressure 29.93 in    
Wind  
Wind Speed 1 mph (ESE)    
Max Wind Speed 8 mph    
Max Gust Speed -    
Visibility 6 miles    
Events Fog    
Averages and records for this station are not official NWS values.
T = Trace of Precipitation, MM = Missing Value Source: NWS Daily Summary

Daily Weather History Graph

Daily Weather History Graph

Search for Another Location

Airport or City:

Trip Planner

Search our weather history database for the weather conditions in past years. The results will help you decide how hot, cold, wet, or windy it might be!

Date:

Astronomy

Aug. 09, 2013 Rise Set
Actual Time 5:57 AM PDT 8:36 PM PDT
Civil Twilight 5:22 AM PDT 9:11 PM PDT
Nautical Twilight 4:37 AM PDT 9:56 PM PDT
Astronomical Twilight 3:43 AM PDT 10:49 PM PDT
Moon 9:09 AM PDT (8/9) 9:26 PM PDT (8/9)
Length of Visible Light 15h 49m
Length of Day
14h 38m
Waxing Crescent, 8% of the Moon is Illuminated
Aug 9
Waxing Crescent
Aug 14
First Quarter
Aug 20
Full
Aug 28
Last Quarter
Sep 5
New

Hourly Weather History & Observations

Time (PDT) Temp. Dew Point Humidity Pressure Visibility Wind Dir Wind Speed Gust Speed Precip Events Conditions
12:53 AM 53.1 °F 51.1 °F 93% 29.97 in 10.0 mi Calm Calm - N/A   Clear
1:53 AM 48.9 °F 48.0 °F 97% 29.97 in 10.0 mi Calm Calm - N/A   Clear
2:45 AM 50.0 °F 48.2 °F 94% 29.97 in 9.0 mi Calm Calm - N/A   Scattered Clouds
2:53 AM 48.9 °F 48.0 °F 97% 29.97 in 3.0 mi Calm Calm - N/A   Mostly Cloudy
2:57 AM 48.2 °F 48.2 °F 100% 29.96 in 1.8 mi Calm Calm - N/A   Mostly Cloudy
3:15 AM 48.2 °F 48.2 °F 100% 29.97 in 0.5 mi Calm Calm - N/A Fog Fog
3:39 AM 50.0 °F 48.2 °F 94% 29.97 in 1.0 mi Calm Calm - N/A   Mist
3:46 AM 50.0 °F 48.2 °F 94% 29.96 in 0.5 mi Calm Calm - N/A Fog Fog
3:53 AM 50.0 °F 48.9 °F 96% 29.96 in 0.5 mi North 3.5 mph - N/A Fog Fog
4:30 AM 48.2 °F 48.2 °F 100% 29.96 in 1.5 mi Calm Calm - N/A   Overcast
4:43 AM 48.2 °F 48.2 °F 100% 29.96 in 0.5 mi Calm Calm - N/A Fog Fog
4:53 AM 50.0 °F 48.9 °F 96% 29.96 in 0.5 mi Calm Calm - N/A Fog Fog
5:53 AM 50.0 °F 50.0 °F 100% 29.96 in 0.2 mi Calm Calm - N/A Fog Fog
6:53 AM 50.0 °F 48.9 °F 96% 29.96 in 0.2 mi Calm Calm - N/A Fog Fog
7:53 AM 50.0 °F 50.0 °F 100% 29.97 in 0.2 mi Calm Calm - N/A Fog Fog
8:10 AM 51.8 °F 51.8 °F 100% 29.97 in 1.8 mi Calm Calm - N/A   Overcast
8:15 AM 51.8 °F 51.8 °F 100% 29.96 in 3.0 mi Calm Calm - N/A   Mostly Cloudy
8:27 AM 53.6 °F 51.8 °F 94% 29.95 in 10.0 mi North 3.5 mph - N/A   Scattered Clouds
8:53 AM 57.9 °F 52.0 °F 81% 29.96 in 10.0 mi East 3.5 mph - N/A   Clear
9:53 AM 63.0 °F 53.1 °F 70% 29.96 in 10.0 mi Calm Calm - N/A   Clear
10:53 AM 62.1 °F 53.1 °F 72% 29.96 in 10.0 mi East 4.6 mph - N/A   Clear
11:53 AM 64.9 °F 53.1 °F 65% 29.94 in 10.0 mi ESE 3.5 mph - N/A   Clear
12:53 PM 68.0 °F 54.0 °F 61% 29.92 in 10.0 mi ESE 4.6 mph - N/A   Clear
1:53 PM 66.9 °F 54.0 °F 63% 29.91 in 10.0 mi SE 4.6 mph - N/A   Clear
2:53 PM 73.0 °F 55.0 °F 53% 29.90 in 10.0 mi Variable 4.6 mph - N/A   Clear
3:53 PM 73.9 °F 55.9 °F 53% 29.88 in 10.0 mi Variable 4.6 mph - N/A   Clear
4:53 PM 72.0 °F 55.9 °F 57% 29.87 in 10.0 mi SSW 8.1 mph - N/A   Clear
5:53 PM 71.1 °F 55.0 °F 57% 29.86 in 10.0 mi SW 4.6 mph - N/A   Clear
6:53 PM 62.1 °F 52.0 °F 70% 29.85 in 10.0 mi Calm Calm - N/A   Clear
7:53 PM 57.0 °F 51.1 °F 81% 29.86 in 10.0 mi East 4.6 mph - N/A   Clear
8:53 PM 54.0 °F 51.1 °F 90% 29.87 in 10.0 mi Calm Calm - N/A   Clear
9:53 PM 52.0 °F 50.0 °F 93% 29.88 in 10.0 mi Calm Calm - N/A   Clear
10:53 PM 53.1 °F 51.1 °F 93% 29.88 in 10.0 mi East 3.5 mph - N/A   Clear
11:53 PM 53.1 °F 50.0 °F 89% 29.86 in 10.0 mi Calm Calm - N/A   Clear